Regional Weather Roundup
Issued by NWS

Home | Current Version | Previous Version | Text Only | Print | Product List | Glossary Off
Versions: 1 2 3 4 5 6 7 8 9 10 11 12 13 14 15 16 17 18 19 20 21 22 23 24 25 26 27 28 29 30 31 32 33 34 35 36 37 38 39 40 41 42 43 44 45 46 47 48 49 50

000
ASUS43 KOAX 230802
RWRNE

WEATHER ROUNDUP FOR NEBRASKA
NATIONAL WEATHER SERVICE OMAHA NE
300 AM CDT SAT MAY 23 2015

NOTES: SATELLITE DATA IS BEING USED TO AUGMENT CLOUD COVER ABOVE
       12000 FEET.
       "FAIR" INDICATES FEW OR NO CLOUDS BELOW 12,000 FEET WITH NO
       SIGNIFICANT WEATHER AND/OR OBSTRUCTIONS TO VISIBILITY.

  * THESE STATIONS DO NOT REPORT WEATHER SUCH AS RAIN...SNOW OR FOG.

NEZ001>004-019>022-054>056-230900-
NEBRASKA PANHANDLE

CITY           SKY/WX    TMP DP  RH WIND       PRES   REMARKS
SCOTTSBLUFF    CLOUDY    46  45  96 E10       30.06F FOG
ALLIANCE       CLOUDY    46  45  96 SE10      30.06S FOG
CHADRON        CLOUDY    48  44  86 CALM      30.06S
SIDNEY         FOG       46  46 100 NE6       30.05F VSB 1/2
$$

NEZ057>060-069>072-079>082-230900-
SOUTHWEST NEBRASKA

CITY           SKY/WX    TMP DP  RH WIND       PRES   REMARKS
NORTH PLATTE   CLOUDY    52  51  97 SE8       30.08S
IMPERIAL       RAIN      52  51  97 SE15      30.07R
MCCOOK         CLOUDY    54  53  97 SE10      30.08S FOG
$$

NEZ005>010-023>029-035>040-094-230900-
NORTH CENTRAL NEBRASKA

CITY           SKY/WX    TMP DP  RH WIND       PRES   REMARKS
VALENTINE      LGT RAIN  48  47  96 E6        30.11F
AINSWORTH      DRIZZLE   49  49  99 E8        30.11F
BROKEN BOW     CLOUDY    53  52  96 SE13G22   30.10S FOG
ORD            CLOUDY    52  50  93 SE9       30.12F
$$

NEZ041-046>049-061>064-073>077-083>087-230900-
SOUTH CENTRAL NEBRASKA

CITY           SKY/WX    TMP DP  RH WIND       PRES   REMARKS
GRAND ISLAND   CLOUDY    53  49  86 SE8       30.15S
HASTINGS       CLOUDY    54  50  86 S9        30.14S
KEARNEY *      CLOUDY    52  48  87 S15       30.14R
$$

NEZ011>018-030>034-042>045-230900-
NORTHEAST NEBRASKA

CITY           SKY/WX    TMP DP  RH WIND       PRES   REMARKS
NORFOLK        CLOUDY    55  50  83 SE6       30.17S
BLAIR          CLOUDY    59  48  67 S8        30.19S
COLUMBUS *     CLOUDY    55  43  62 S8        30.20S
FREMONT        CLOUDY    59  49  69 SE5       30.19S
TEKAMAH        CLOUDY    57  52  83 E5        30.19S
$$

NEZ050>053-065>068-078-088>093-230900-
SOUTHEAST NEBRASKA

CITY           SKY/WX    TMP DP  RH WIND       PRES   REMARKS
LINCOLN        CLOUDY    57  48  72 S7        30.20R
OMAHA EPPLEY   CLOUDY    59  50  72 SE7       30.20R
FALLS CITY     CLOUDY    56  51  84 SE3       30.19R
$$

NEZ044-045-051>053-067-230900-
OMAHA AREA

CITY           SKY/WX    TMP DP  RH WIND       PRES   REMARKS
OMAHA EPPLEY   CLOUDY    59  50  72 SE7       30.20R
BLAIR          CLOUDY    59  48  67 S8        30.19S
FREMONT        CLOUDY    59  49  69 SE5       30.19S
OFFUTT AFB     CLOUDY    58  50  75 SE6       30.19S
$$


USA.gov is the U.S. government's official web portal to all federal, state and local government web resources and services.